Location: Argel�s
(43.0896°N, 0.1979°E)
Time: 12:52:44
(UTC+00:00)

Daily predictions for brighter satellites

Satellite Brightness Start Highest point End
(mag) Time Altitude Azimuth Time Altitude Azimuth Time Altitude Azimuth
Cosmos 2227 Rocket 2.2 17:21:20 10° SSW 17:26:58 73° ESE 17:32:37 10° NNE
CZ-4 R/B 2.5 17:28:33 10° ESE 17:31:50 24° ENE 17:35:12 10° NNE
YAOGAN 6 3.2 17:29:38 10° SE 17:33:00 36° ENE 17:36:22 10° N
ATLAS CENTAUR R/B 2.4 17:32:22 10° N 17:35:39 23° NE 17:38:44 10° E
Shenzhou-11 Module 1.7 17:33:01 10° W 17:35:43 78° S 17:38:24 10° E
Cosmos 1825 Rocket 3.5 17:33:06 10° S 17:37:22 63° E 17:41:40 10° NNE
Meteor 1-21 Rocket 4.2 17:32:01 10° S 17:37:36 73° E 17:43:20 10° NNE
IRS-1C Rocket 4.3 17:33:40 10° S 17:38:55 79° WSW 17:44:12 10° NNW
Cosmos 1340 Rocket 3.9 17:35:33 10° NNW 17:39:24 49° W 17:43:16 10° S
Cosmos 2366 rocket 4.4 17:34:32 10° SSE 17:40:20 43° E 17:46:13 10° NNE
NOAA 12 4.1 17:35:30 10° SSE 17:40:42 78° ENE 17:45:59 10° N
FengYun 1-2 T 4.4 17:37:55 10° SE 17:43:23 53° ENE 17:48:53 10° N
USA 234 3.3 17:37:36 10° ESE 17:44:07 73° NE 17:50:38 10° NW
Okean O Rocket 4.4 17:42:10 10° SSW 17:45:46 24° W 17:49:24 10° NW
Cosmos 1626 4.5 17:43:34 10° SW 17:46:42 25° WNW 17:49:50 10° NNW
Cosmos 2221 4.0 17:49:07 10° NNE 17:51:50 16° ENE 17:54:33 10° ESE
Okean-O 2.6 17:49:43 10° SSE 17:54:08 80° ENE 17:58:36 10° N
Cosmos 44 3.3 17:52:30 10° SW 17:57:05 70° NW 18:01:30 10° NNE
Cosmos-2242 3.0 17:54:22 10° N 17:58:42 88° ENE 18:02:58 10° S
Cosmos 1356 Rocket 4.0 17:56:16 10° N 17:59:57 32° ENE 18:03:41 10° SE
ADEOS Rocket 4.2 17:55:24 10° NE 18:01:14 28° E 18:07:27 10° SSE
SKYMED 2 3.5 17:59:13 10° NNE 18:03:33 69° E 18:07:52 10° S
Cosmos 1703 3.2 18:00:06 10° S 18:04:01 64° E 18:07:57 10° NNE
ATLAS 5 CENTAUR R/B 4.4 18:00:01 10° NNW 18:04:15 27° NE 18:15:39 10° E
CZ-4 R/B 4.3 18:05:51 10° SSE 18:09:57 70° ENE 18:14:03 10° N
Cosmos 1727 Rocket 4.1 18:05:01 10° N 18:11:04 53° ENE 18:17:05 10° SSE
SL-8 Rocket 4.1 18:07:23 10° S 18:13:42 84° W 18:20:00 10° N
YAOGAN 1 2.6 18:12:56 10° SSE 18:17:10 58° ENE 18:21:26 10° N
CSL-04 Rocket 3.7 18:11:57 10° SSE 18:17:20 58° ENE 18:22:47 10° N
Cosmos 2237 Rocket 4.2 18:14:50 10° NW 18:19:45 32° WSW 18:24:39 10° SSW
Cosmos 1455 2.7 18:16:32 10° NNW 18:20:18 62° W 18:24:01 10° S
Cosmos 2251 Rocket 3.5 18:19:38 10° NNW 18:24:58 88° ENE 18:30:19 10° SSE
H-2A R/B 3.6 18:27:12 16° NE 18:27:12 16° NE 18:29:11 10° NNE
Cosmos 1939 Rocket 2.9 18:22:59 10° SSE 18:26:48 53° ENE 18:30:43 10° N
CZ-2D R/B 3.2 18:27:19 10° SSE 18:31:05 60° ENE 18:34:55 10° N
Cosmos 44 Rocket 3.3 18:34:35 10° SSW 18:39:17 56° ESE 18:41:15 32° ENE
SL-16 R/B 3.0 18:39:51 10° NNW 18:45:22 54° WSW 18:50:50 10° S
Cosmos 1821 Rocket 4.0 18:41:24 10° S 18:47:36 58° E 18:53:45 10° NNE
Cosmos 2227 4.3 18:42:36 10° S 18:48:09 54° ESE 18:50:52 29° NE
COSMO-SKYMED 1 4.1 18:47:33 10° N 18:51:32 36° WNW 18:55:30 10° SW
USA 267 4.3 18:48:27 16° NE 18:52:53 36° NNW 18:58:42 10° W
Cosmos 1842 Rocket 3.6 18:49:38 10° N 18:54:08 84° W 18:58:37 10° S
Cosmos 1371 Rocket 4.2 18:51:05 10° S 18:55:56 43° ESE 18:56:02 43° E
SL-8 R/B 4.3 18:53:26 10° W 18:58:05 46° N 18:59:13 38° NNE
Cosmos 2297 Rocket 4.3 18:53:51 10° WSW 18:58:15 23° NW 19:02:41 10° N
Atlas Centaur 2 3.7 18:55:10 10° SW 18:58:21 19° S 19:00:09 16° SSE
Cosmos 1603 3.7 18:52:49 10° NNW 18:58:26 58° ENE 19:00:32 36° ESE
Cosmos 2098 4.3 18:55:49 10° S 18:58:52 80° W 18:59:03 75° NW
DELTA 2 R/B (1) 4.4 18:53:41 10° W 18:58:59 45° SSW 19:01:40 26° SE
Cosmos 1190 Rocket 4.4 18:54:58 10° N 18:59:35 41° NE 18:59:35 41° NE
Cosmos 407 Rocket 3.6 18:55:06 10° N 19:00:13 48° ENE 19:00:24 47° ENE
Meteor 1-27 4.3 18:57:08 10° NNW 19:02:42 77° W 19:08:17 10° S
ARGOS 4.4 19:05:26 25° NNE 19:05:26 25° NNE 19:08:03 10° N
ISS -1.7 19:02:38 10° WNW 19:04:54 20° NNW 19:04:54 20° NNW
Cosmos 2263 Rocket 2.2 19:00:02 10° S 19:05:26 56° ESE 19:06:18 50° ENE
CZ-4 R/B 3.4 19:03:09 10° SSW 19:06:44 29° W 19:10:23 10° NW
CENTAUR R/B 4.2 19:03:37 10° SSE 19:04:35 14° SSE 19:04:35 14° SSE
Shenzhou-11 Module 4.2 19:08:03 10° W 19:09:16 23° W 19:09:16 23° W
NOSS 3-2 (A) 3.5 19:05:46 10° S 19:11:10 48° ESE 19:11:18 48° ESE
Cosmos 2227 Rocket 4.4 19:07:30 10° W 19:11:37 20° NW 19:15:44 10° N
Timation 1 Rocket 4.3 19:07:52 10° S 19:13:44 63° ESE 19:14:46 54° ENE
ATLAS CENTAUR R/B 2.7 19:11:04 10° NW 19:14:40 35° WSW 19:16:34 21° SSW
Cosmos 2123 Rocket 4.0 19:09:19 10° N 19:15:32 56° ENE 19:16:36 49° ESE
Ariane Rocket 2.9 19:14:56 10° SSE 19:20:00 88° WSW 19:25:08 10° NNW
Cosmos 1934 Rocket 3.8 19:14:56 10° S 19:20:54 64° E 19:22:15 51° NE
Cosmos 1000 Rocket 4.5 19:16:11 10° N 19:22:24 81° W 19:28:39 10° S
Cosmos 1624 Rocket 4.1 19:18:01 10° S 19:22:26 57° SSE 19:22:26 57° SSE
Cosmos 2239 Rocket 4.5 19:19:45 10° S 19:26:05 83° W 19:32:27 10° N
Cosmos 1943 3.0 19:23:23 10° NNW 19:29:00 77° NE 19:29:00 77° NE
Cosmos 2221 3.6 19:25:33 10° NNW 19:29:38 44° W 19:33:43 10° SSW
Cosmos 2056 Rocket 3.9 19:33:45 10° SSW 19:37:45 54° SSW 19:37:45 54° SSW
Cosmos 1535 Rocket 4.4 19:34:31 10° S 19:40:50 89° WNW 19:47:16 10° N
Cosmos 614 Rocket 4.2 19:37:53 10° NNW 19:43:04 67° WSW 19:43:04 67° WSW
ADEOS Rocket 3.8 19:40:18 10° N 19:46:57 59° WNW 19:54:13 10° SSW
MOS 1 4.4 19:49:50 63° SSW 19:50:33 70° WSW 19:56:15 10° NNW
USA 238 DEB 3.5 19:44:20 10° SW 19:51:02 84° NW 19:51:29 78° N
USA 238 3.5 19:44:28 10° SW 19:51:09 84° NW 19:51:32 79° N
H-2A R/B 3.9 20:07:48 23° NNW 20:07:48 23° NNW 20:09:44 10° NNW
Cosmos 2263 Rocket 4.4 20:45:16 10° WSW 20:48:04 21° WNW 20:48:04 21° WNW
FALCON 9 R/B 4.4 20:43:34 10° WSW 20:49:28 26° SW 20:49:28 26° SW
